Location: Carnières
(50.1682°N, 3.3474°E)
Time: 20:25:16
(UTC+00:00)

SL-16 R/B - Pass Details

Date: 07 August 2024
Orbit: 842 x 845 km, 71.0° (Epoch: 10 September)

Event Time Altitude Azimuth Distance (km) Brightness Sun altitude
Exits shadow 03:21:31 - 274° (W) 3,269 4.8 -9.2°
Reaches altitude 10° 03:24:38 10° 294° (WNW) 2,471 4.4 -8.9°
Maximum altitude 03:27:55 15° 330° (NNW) 2,110 4.4 -8.5°
Drops below altitude 10° 03:31:13 10° 6° (N) 2,477 5.3 -8.0°
Sets 03:34:48 0° 29° (NNE) 3,416 6.7 -7.6°
